Tracking 23726 objects as of 24-Sep-2021
HD Live streaming from Space Station
objects crossing your sky now

STARLINK-2078

Track STARLINK-2078 now!
10-day predictions
STARLINK-2078 is classified as:


NORAD ID: 47675
Int'l Code: 2021-012BH
Perigee: 553.0 km
Apogee: 555.6 km
Inclination: 53.1 °
Period: 95.6 minutes
Semi major axis: 6925 km
RCS: Unknown
Launch date: February 16, 2021
Source: United States (US)
Launch site: AIR FORCE EASTERN TEST RANGE (AFETR)
aabbcc
Your satellite tracking list
Your tracking list is empty




NASA's NSSDC Master Catalog

Two Line Element Set (TLE):
1 47675U 21012BH  21267.25001157 -.00003189  00000-0 -19514-3 0  9990
2 47675  53.0537 157.4718 0001900  61.7831 288.8502 15.06423221 34458
Source of the keplerian elements: AFSPC